This is the latest recevied weather packets stored in our database for station/object DK9XR-14. If no packets are shown the sender has not sent any weather packets the latest 10 day(s).
| Time | Temp. | Humidity | Pressure | Rain* | Wind** | Luminosity | Snow |
|---|---|---|---|---|---|---|---|
| 1777716788 | 21.11° C | 37% | 1023.5 hPa | 0 mm | - | - | - |
| 1777716485 | 20.56° C | 36% | 1023.5 hPa | 0 mm | - | - | - |
| 1777716188 | 20.56° C | 37% | 1023.6 hPa | 0 mm | - | - | - |
| 1777715884 | 20.56° C | 36% | 1023.7 hPa | 0 mm | - | - | - |
| 1777715584 | 20.56° C | 37% | 1023.7 hPa | 0 mm | - | - | - |
| 1777715282 | 20° C | 40% | 1023.8 hPa | 0 mm | - | - | - |
| 1777714982 | 19.44° C | 41% | 1023.8 hPa | 0 mm | - | - | - |
| 1777714683 | 19.44° C | 42% | 1023.9 hPa | 0 mm | - | - | - |
| 1777714383 | 18.89° C | 42% | 1023.9 hPa | 0 mm | - | - | - |
| 1777714081 | 18.89° C | 44% | 1024 hPa | 0 mm | - | - | - |
| 1777713783 | 18.33° C | 44% | 1024 hPa | 0 mm | - | - | - |
| 1777713483 | 18.33° C | 43% | 1024.1 hPa | 0 mm | - | - | - |
| 1777713181 | 17.78° C | 44% | 1024.1 hPa | 0 mm | - | - | - |
| 1777712881 | 17.78° C | 44% | 1024.1 hPa | 0 mm | - | - | - |
| 1777712580 | 17.22° C | 49% | 1024.1 hPa | 0 mm | - | - | - |
| 1777712282 | 17.22° C | 50% | 1024.2 hPa | 0 mm | - | - | - |
| 1777711980 | 17.22° C | 49% | 1024.2 hPa | 0 mm | - | - | - |
| 1777711678 | 17.22° C | 49% | 1024.2 hPa | 0 mm | - | - | - |
| 1777711379 | 16.67° C | 51% | 1024.2 hPa | 0 mm | - | - | - |
| 1777711078 | 16.11° C | 51% | 1024.2 hPa | 0 mm | - | - | - |
| 1777710777 | 16.11° C | 50% | 1024.2 hPa | 0 mm | - | - | - |
| 1777710479 | 15.56° C | 52% | 1024.2 hPa | 0 mm | - | - | - |
| 1777710175 | 15° C | 53% | 1024.4 hPa | 0 mm | - | - | - |
| 1777709874 | 15° C | 53% | 1024.3 hPa | 0 mm | - | - | - |
| 1777709572 | 15° C | 53% | 1024.4 hPa | 0 mm | - | - | - |
* Rain latest hour (hover to see other rain measurements)
** Current wind speed in m/s (hover to see current wind gust speed)